Location: *
(46.1006°N, 1.8394°E)
Time: 14:20:52
(UTC+00:00)

Cosmos 1536 Rocket - Pass Details

Date: 20 September 2019
Orbit: 604 x 633 km, 82.5° (Epoch: 18 October)

Event Time Altitude Azimuth Distance (km) Brightness Sun altitude
Rises 18:14:58 0° 351° (N) 2,874 7.2 -4.3°
Reaches altitude 10° 18:17:11 10° 353° (N) 1,964 6.3 -4.7°
Maximum altitude 18:21:32 81° 80° (E) 619 3.5 -5.4°
Drops below altitude 10° 18:25:51 10° 169° (S) 1,949 5.9 -6.2°
Sets 18:28:03 0° 170° (S) 2,849 6.8 -6.5°
